Time,TemperatureF,DewpointF,PressureIn,WindDirection,WindDirectionDegrees,WindSpeedMPH,WindSpeedGustMPH,Humidity,HourlyPrecipIn,Conditions,Clouds,dailyrainin,SoftwareType,DateUTC
2013-01-06 00:16:00,19.3,15.0,30.18,NE,51,0.0,3.0,83,0.00,,,0.00,weatherlink.com 1.10,2013-01-06 05:16:00,
2013-01-06 00:31:00,19.1,15.0,30.17,ENE,70,1.0,2.0,84,0.00,,,0.00,weatherlink.com 1.10,2013-01-06 05:31:00,
2013-01-06 00:46:00,19.4,15.0,30.16,ENE,65,0.0,3.0,84,0.00,,,0.00,weatherlink.com 1.10,2013-01-06 05:46:00,
2013-01-06 01:01:00,19.6,16.0,30.15,ENE,75,0.0,2.0,84,0.00,,,0.00,weatherlink.com 1.10,2013-01-06 06:01:00,
2013-01-06 01:16:00,20.4,16.0,30.15,East,98,0.0,3.0,83,0.00,,,0.00,weatherlink.com 1.10,2013-01-06 06:16:00,
2013-01-06 01:31:00,21.1,16.0,30.14,ESE,106,0.0,2.0,81,0.00,,,0.00,weatherlink.com 1.10,2013-01-06 06:31:00,
2013-01-06 01:46:00,21.6,16.0,30.14,ESE,110,0.0,5.0,80,0.00,,,0.00,weatherlink.com 1.10,2013-01-06 06:46:00,
2013-01-06 02:01:00,21.7,16.0,30.14,ENE,68,0.0,3.0,80,0.00,,,0.00,weatherlink.com 1.10,2013-01-06 07:01:00,
2013-01-06 02:16:00,21.7,16.0,30.12,WSW,253,1.0,2.0,80,0.00,,,0.00,weatherlink.com 1.10,2013-01-06 07:16:00,
2013-01-06 02:32:00,21.8,17.0,30.11,SE,139,0.0,3.0,81,0.00,,,0.00,weatherlink.com 1.10,2013-01-06 07:32:00,
2013-01-06 02:47:00,22.3,17.0,30.10,ESE,110,1.0,3.0,80,0.00,,,0.00,weatherlink.com 1.10,2013-01-06 07:47:00,
2013-01-06 03:02:00,22.7,17.0,30.11,ENE,77,2.0,4.0,79,0.00,,,0.00,weatherlink.com 1.10,2013-01-06 08:02:00,
2013-01-06 03:17:00,22.8,17.0,30.10,SW,214,0.0,7.0,78,0.00,,,0.00,weatherlink.com 1.10,2013-01-06 08:17:00,
2013-01-06 03:32:00,22.8,17.0,30.09,SE,129,0.0,1.0,79,0.00,,,0.00,weatherlink.com 1.10,2013-01-06 08:32:00,
2013-01-06 03:47:00,22.9,17.0,30.07,NNW,330,0.0,3.0,79,0.00,,,0.00,weatherlink.com 1.10,2013-01-06 08:47:00,
2013-01-06 04:02:00,23.0,17.0,30.06,SSE,166,1.0,4.0,79,0.00,,,0.00,weatherlink.com 1.10,2013-01-06 09:02:00,
2013-01-06 04:17:00,23.3,18.0,30.05,NNE,24,0.0,2.0,79,0.00,,,0.00,weatherlink.com 1.10,2013-01-06 09:17:00,
2013-01-06 04:32:00,23.6,18.0,30.05,WSW,252,0.0,5.0,79,0.00,,,0.00,weatherlink.com 1.10,2013-01-06 09:32:00,
2013-01-06 04:48:00,23.9,19.0,30.05,South,179,2.0,7.0,80,0.00,,,0.00,weatherlink.com 1.10,2013-01-06 09:48:00,
2013-01-06 05:02:00,23.9,19.0,30.03,NW,326,1.0,6.0,82,0.00,,,0.00,weatherlink.com 1.10,2013-01-06 10:02:00,
2013-01-06 05:17:00,23.5,20.0,30.03,SW,231,1.0,6.0,85,0.00,,,0.00,weatherlink.com 1.10,2013-01-06 10:17:00,
2013-01-06 05:32:00,23.0,20.0,30.03,SW,218,0.0,2.0,88,0.00,,,0.00,weatherlink.com 1.10,2013-01-06 10:32:00,
2013-01-06 05:47:00,22.7,20.0,30.02,West,274,0.0,5.0,90,0.00,,,0.00,weatherlink.com 1.10,2013-01-06 10:47:00,
2013-01-06 06:02:00,22.7,20.0,30.02,WSW,257,2.0,4.0,90,0.00,,,0.00,weatherlink.com 1.10,2013-01-06 11:02:00,
2013-01-06 06:17:00,22.6,20.0,30.02,West,259,3.0,3.0,90,0.00,,,0.00,weatherlink.com 1.10,2013-01-06 11:17:00,
2013-01-06 06:32:00,22.6,20.0,30.02,West,277,2.0,5.0,91,0.00,,,0.00,weatherlink.com 1.10,2013-01-06 11:32:00,
2013-01-06 06:47:00,22.7,21.0,30.03,WSW,243,1.0,8.0,92,0.00,,,0.00,weatherlink.com 1.10,2013-01-06 11:47:00,
2013-01-06 07:02:00,22.7,21.0,30.03,WNW,302,0.0,8.0,92,0.00,,,0.00,weatherlink.com 1.10,2013-01-06 12:02:00,
2013-01-06 07:17:00,22.7,21.0,30.02,East,95,1.0,7.0,92,0.00,,,0.00,weatherlink.com 1.10,2013-01-06 12:17:00,
2013-01-06 07:32:00,22.7,21.0,30.02,SW,236,2.0,7.0,92,0.00,,,0.00,weatherlink.com 1.10,2013-01-06 12:32:00,
2013-01-06 07:47:00,22.9,21.0,30.01,SW,222,3.0,5.0,92,0.00,,,0.00,weatherlink.com 1.10,2013-01-06 12:47:00,
2013-01-06 08:02:00,23.0,21.0,30.01,SSW,195,1.0,3.0,92,0.00,,,0.00,weatherlink.com 1.10,2013-01-06 13:02:00,
2013-01-06 08:17:00,23.1,21.0,30.00,South,191,1.0,4.0,92,0.00,,,0.00,weatherlink.com 1.10,2013-01-06 13:17:00,
2013-01-06 08:32:00,23.4,22.0,30.01,SE,143,1.0,4.0,92,0.00,,,0.00,weatherlink.com 1.10,2013-01-06 13:32:00,
2013-01-06 08:47:00,23.6,21.0,30.01,SW,215,1.0,5.0,91,0.00,,,0.00,weatherlink.com 1.10,2013-01-06 13:47:00,
2013-01-06 09:02:00,23.7,22.0,30.01,SW,219,1.0,3.0,91,0.00,,,0.00,weatherlink.com 1.10,2013-01-06 14:02:00,
2013-01-06 09:17:00,23.9,22.0,30.01,SW,235,2.0,4.0,91,0.00,,,0.00,weatherlink.com 1.10,2013-01-06 14:17:00,
2013-01-06 09:32:00,23.9,22.0,30.01,WSW,248,3.0,5.0,91,0.00,,,0.00,weatherlink.com 1.10,2013-01-06 14:32:00,
2013-01-06 09:47:00,24.0,22.0,30.00,West,264,0.0,4.0,90,0.00,,,0.00,weatherlink.com 1.10,2013-01-06 14:47:00,
2013-01-06 10:02:00,24.2,22.0,30.00,West,266,0.0,4.0,90,0.00,,,0.00,weatherlink.com 1.10,2013-01-06 15:02:00,
2013-01-06 10:17:00,24.5,22.0,29.99,East,91,1.0,3.0,90,0.00,,,0.00,weatherlink.com 1.10,2013-01-06 15:17:00,
2013-01-06 10:32:00,24.4,22.0,29.98,SW,229,0.0,3.0,90,0.00,,,0.00,weatherlink.com 1.10,2013-01-06 15:32:00,
2013-01-06 10:48:00,24.8,22.0,29.97,WSW,240,0.0,2.0,90,0.00,,,0.00,weatherlink.com 1.10,2013-01-06 15:48:00,
2013-01-06 11:03:00,25.7,23.0,29.97,SSE,160,2.0,4.0,89,0.00,,,0.00,weatherlink.com 1.10,2013-01-06 16:03:00,
2013-01-06 11:18:00,26.1,23.0,29.97,SW,229,1.0,5.0,88,0.00,,,0.00,weatherlink.com 1.10,2013-01-06 16:18:00,
2013-01-06 11:33:00,26.0,23.0,29.96,SW,231,2.0,4.0,88,0.00,,,0.00,weatherlink.com 1.10,2013-01-06 16:33:00,
2013-01-06 11:48:00,26.1,23.0,29.95,SE,139,1.0,3.0,88,0.00,,,0.00,weatherlink.com 1.10,2013-01-06 16:48:00,
2013-01-06 12:03:00,27.0,24.0,29.95,WSW,249,0.0,3.0,87,0.00,,,0.00,weatherlink.com 1.10,2013-01-06 17:03:00,
2013-01-06 12:18:00,26.8,24.0,29.94,WNW,292,1.0,2.0,87,0.00,,,0.00,weatherlink.com 1.10,2013-01-06 17:18:00,
2013-01-06 12:33:00,26.9,24.0,29.93,SW,229,2.0,2.0,87,0.00,,,0.00,weatherlink.com 1.10,2013-01-06 17:33:00,
2013-01-06 12:48:00,26.9,24.0,29.93,WSW,239,0.0,5.0,88,0.00,,,0.00,weatherlink.com 1.10,2013-01-06 17:48:00,
2013-01-06 13:03:00,26.5,23.0,29.93,SSE,168,1.0,4.0,88,0.00,,,0.00,weatherlink.com 1.10,2013-01-06 18:03:00,
2013-01-06 13:18:00,26.4,24.0,29.92,SSE,159,0.0,2.0,89,0.00,,,0.00,weatherlink.com 1.10,2013-01-06 18:18:00,
2013-01-06 13:33:00,26.5,24.0,29.93,WSW,248,1.0,3.0,89,0.00,,,0.00,weatherlink.com 1.10,2013-01-06 18:33:00,
2013-01-06 13:48:00,27.1,24.0,29.92,WSW,246,0.0,2.0,89,0.00,,,0.00,weatherlink.com 1.10,2013-01-06 18:48:00,
2013-01-06 14:03:00,27.3,24.0,29.92,SE,128,1.0,2.0,88,0.00,,,0.00,weatherlink.com 1.10,2013-01-06 19:03:00,
2013-01-06 14:18:00,27.5,24.0,29.91,SE,131,0.0,5.0,88,0.00,,,0.00,weatherlink.com 1.10,2013-01-06 19:18:00,
2013-01-06 14:33:00,27.4,24.0,29.92,SW,221,0.0,2.0,88,0.00,,,0.00,weatherlink.com 1.10,2013-01-06 19:33:00,
2013-01-06 14:48:00,27.6,25.0,29.91,West,267,0.0,4.0,88,0.00,,,0.00,weatherlink.com 1.10,2013-01-06 19:48:00,
2013-01-06 15:03:00,27.6,25.0,29.91,West,263,0.0,2.0,88,0.00,,,0.00,weatherlink.com 1.10,2013-01-06 20:03:00,
2013-01-06 15:18:00,27.7,25.0,29.91,SSW,195,1.0,3.0,89,0.00,,,0.00,weatherlink.com 1.10,2013-01-06 20:18:00,
2013-01-06 15:33:00,27.7,25.0,29.91,SW,225,1.0,3.0,89,0.00,,,0.00,weatherlink.com 1.10,2013-01-06 20:33:00,
2013-01-06 15:48:00,27.7,25.0,29.91,WSW,240,0.0,2.0,89,0.00,,,0.00,weatherlink.com 1.10,2013-01-06 20:48:00,
2013-01-06 16:03:00,27.7,25.0,29.91,SW,226,2.0,4.0,89,0.00,,,0.00,weatherlink.com 1.10,2013-01-06 21:03:00,
2013-01-06 16:18:00,27.7,25.0,29.92,SE,132,0.0,2.0,90,0.00,,,0.00,weatherlink.com 1.10,2013-01-06 21:18:00,
2013-01-06 16:33:00,27.8,25.0,29.92,WSW,238,1.0,4.0,90,0.00,,,0.00,weatherlink.com 1.10,2013-01-06 21:33:00,
2013-01-06 16:48:00,27.7,25.0,29.92,WSW,255,0.0,3.0,90,0.00,,,0.00,weatherlink.com 1.10,2013-01-06 21:48:00,
2013-01-06 17:03:00,27.9,25.0,29.92,ESE,122,1.0,3.0,90,0.00,,,0.00,weatherlink.com 1.10,2013-01-06 22:03:00,
2013-01-06 17:18:00,27.9,25.0,29.92,SW,228,0.0,2.0,90,0.00,,,0.00,weatherlink.com 1.10,2013-01-06 22:18:00,
2013-01-06 17:33:00,28.0,26.0,29.93,SW,228,2.0,5.0,90,0.00,,,0.00,weatherlink.com 1.10,2013-01-06 22:33:00,
2013-01-06 17:48:00,28.1,26.0,29.92,ESE,120,0.0,4.0,90,0.00,,,0.00,weatherlink.com 1.10,2013-01-06 22:48:00,
2013-01-06 18:03:00,28.3,26.0,29.93,ESE,107,3.0,5.0,90,0.00,,,0.00,weatherlink.com 1.10,2013-01-06 23:03:00,
2013-01-06 18:18:00,28.3,26.0,29.93,SW,214,3.0,5.0,90,0.00,,,0.00,weatherlink.com 1.10,2013-01-06 23:18:00,
2013-01-06 18:33:00,28.2,26.0,29.93,SW,221,1.0,3.0,90,0.00,,,0.00,weatherlink.com 1.10,2013-01-06 23:33:00,
2013-01-06 18:48:00,28.0,26.0,29.94,SSW,193,1.0,4.0,91,0.00,,,0.00,weatherlink.com 1.10,2013-01-06 23:48:00,
2013-01-06 19:03:00,28.0,26.0,29.93,South,179,0.0,4.0,92,0.00,,,0.00,weatherlink.com 1.10,2013-01-07 00:03:00,
2013-01-06 19:18:00,28.0,26.0,29.94,SE,132,1.0,4.0,92,0.00,,,0.00,weatherlink.com 1.10,2013-01-07 00:18:00,
2013-01-06 19:33:00,28.0,26.0,29.93,East,83,0.0,2.0,92,0.00,,,0.00,weatherlink.com 1.10,2013-01-07 00:33:00,
2013-01-06 19:48:00,28.0,26.0,29.93,SW,219,0.0,3.0,92,0.00,,,0.00,weatherlink.com 1.10,2013-01-07 00:48:00,
2013-01-06 20:03:00,28.2,26.0,29.93,SSW,205,0.0,5.0,92,0.00,,,0.00,weatherlink.com 1.10,2013-01-07 01:03:00,
2013-01-06 20:18:00,28.2,26.0,29.93,WSW,248,0.0,4.0,92,0.00,,,0.00,weatherlink.com 1.10,2013-01-07 01:18:00,
2013-01-06 20:33:00,28.2,26.0,29.93,SSW,201,1.0,2.0,92,0.00,,,0.00,weatherlink.com 1.10,2013-01-07 01:33:00,
2013-01-06 20:48:00,28.7,27.0,29.93,SE,134,1.0,3.0,92,0.00,,,0.00,weatherlink.com 1.10,2013-01-07 01:48:00,
2013-01-06 21:03:00,29.0,27.0,29.93,ESE,111,1.0,5.0,92,0.00,,,0.00,weatherlink.com 1.10,2013-01-07 02:03:00,
2013-01-06 21:18:00,29.3,27.0,29.93,WSW,253,0.0,8.0,92,0.00,,,0.00,weatherlink.com 1.10,2013-01-07 02:18:00,
2013-01-06 21:33:00,29.3,27.0,29.93,SW,222,2.0,5.0,92,0.00,,,0.00,weatherlink.com 1.10,2013-01-07 02:33:00,
2013-01-06 21:48:00,29.3,27.0,29.93,SSW,195,1.0,3.0,92,0.00,,,0.00,weatherlink.com 1.10,2013-01-07 02:48:00,
2013-01-06 22:03:00,29.6,28.0,29.93,SW,217,2.0,6.0,92,0.00,,,0.00,weatherlink.com 1.10,2013-01-07 03:03:00,
2013-01-06 22:18:00,29.4,27.0,29.93,SW,225,1.0,4.0,92,0.00,,,0.00,weatherlink.com 1.10,2013-01-07 03:18:00,
2013-01-06 22:33:00,29.4,27.0,29.94,WSW,247,3.0,7.0,92,0.00,,,0.00,weatherlink.com 1.10,2013-01-07 03:33:00,
2013-01-06 22:48:00,29.3,27.0,29.95,SW,226,1.0,4.0,92,0.00,,,0.00,weatherlink.com 1.10,2013-01-07 03:48:00,
2013-01-06 23:03:00,29.1,27.0,29.95,West,280,1.0,2.0,93,0.00,,,0.00,weatherlink.com 1.10,2013-01-07 04:03:00,
2013-01-06 23:18:00,28.8,27.0,29.95,SW,236,1.0,2.0,93,0.00,,,0.00,weatherlink.com 1.10,2013-01-07 04:18:00,
2013-01-06 23:49:00,26.2,25.0,29.96,WNW,287,1.0,6.0,93,0.00,,,0.00,weatherlink.com 1.10,2013-01-07 04:49:00,